User: anonymous   Login
Location: Clinton NY
(43.0598°N, 75.3602°W)
Time: 15:54:45
(UTC-04:00)
Language:

Cosmos-2242 - Orbit

View from above orbital plane
View from above orbital plane
View from above satellite
View from above satellite

Ground track
Ground track

The orbit data is extracted from the following two-line orbital elements,

1 22626U 93024A   15122.93056571  .00000917  00000-0  99594-4 0  9990
2 22626 082.5244 053.2794 0019441 171.6332 188.5213 14.86897992190761
Epoch (UTC): 02 May 2015 22:20:00
Eccentricity: 0.0019441
inclination: 82.5244°
perigee height: 594 km
apogee height: 621 km
right ascension of ascending node: 53.2794°
argument of perigee: 171.6332°
revolutions per day: 14.86897992
mean anomaly at epoch: 188.5213°
orbit number at epoch: 19076

The dashed part of the orbit path shows where the satellite is in the earth's shadow,  

DLR